Simultaneous Nadir Overpasses (SNOs) Predictions

Prediction of SNOs between NOAA-21 and METOP-C Satellite Orbit:

Table of predicted SNOs for the next 14.0 days since TLE Epoch: 5/21/2024
Index Date (NOAA-21) Time (NOAA-21) Lat,Lon (NOAA-21) SZA (NOAA-21 ) Date (METOP-C) Time (METOP-C) Lat,Lon (METOP-C) SZA (METOP-C ) Distance(km) Time Diff (sec)
1 06/03/2024 06:13:04 -73.49,-103.26 128.71 06/03/2024 06:14:09 -73.44,-100.15 128.92 98.57 65
2 06/03/2024 07:03:45 73.25, 64.59 51.02 06/03/2024 07:04:54 73.18, 66.60 50.84 64.96 69
3 06/03/2024 07:54:27 -73.16,-127.88 129.09 06/03/2024 07:55:37 -73.12,-126.20 129.22 54.19 70
4 06/03/2024 08:45:09 72.96, 39.85 50.69 06/03/2024 08:46:21 72.91, 40.67 50.59 27.50 72
5 06/03/2024 09:35:51 -72.87,-152.63 129.42 06/03/2024 09:37:04 -72.85,-152.12 129.47 16.71 73
6 06/03/2024 10:26:34 72.72, 14.98 50.42 06/03/2024 10:27:46 72.74, 14.97 50.43 1.80 72
7 06/03/2024 11:17:18 -72.73,-177.71 129.58 06/03/2024 11:18:28 -72.73,-177.72 129.59 0.18 70
8 06/03/2024 12:08:04 72.73, -10.42 50.43 06/03/2024 12:09:08 72.72, -10.41 50.40 1.90 64
9 06/03/2024 12:58:48 -72.74, 156.89 129.57 06/03/2024 12:59:50 -72.71, 156.90 129.62 3.47 62
10 06/03/2024 13:49:33 72.70, -35.71 50.38 06/03/2024 13:50:30 72.70, -35.79 50.37 2.58 57
11 06/03/2024 14:40:17 -72.70, 131.59 129.62 06/03/2024 14:41:12 -72.69, 131.52 129.64 2.68 55
12 06/03/2024 15:31:03 72.71, -61.11 50.39 06/03/2024 15:31:51 72.73, -61.06 50.39 2.62 48
13 06/03/2024 16:21:47 -72.72, 106.19 129.62 06/03/2024 16:22:33 -72.72, 106.25 129.62 1.91 46
14 06/03/2024 17:12:33 72.72, -86.51 50.39 06/03/2024 17:13:13 72.71, -86.45 50.37 2.63 40
15 06/03/2024 18:03:16 -72.68, 80.90 129.66 06/03/2024 18:03:55 -72.70, 80.87 129.65 2.81 39
16 06/03/2024 18:54:02 72.68,-111.81 50.34 06/03/2024 18:54:35 72.69,-111.83 50.34 0.85 33
17 06/03/2024 19:44:46 -72.69, 55.50 129.66 06/03/2024 19:45:17 -72.68, 55.49 129.67 1.06 31
18 06/03/2024 20:35:32 72.70,-137.21 50.35 06/03/2024 20:35:57 72.67,-137.21 50.31 3.19 25
19 06/03/2024 21:26:15 -72.65, 30.20 129.71 06/03/2024 21:26:39 -72.66, 30.11 129.70 3.36 24
20 06/03/2024 22:17:01 72.66,-162.50 50.30 06/03/2024 22:17:19 72.65,-162.59 50.29 3.18 18
21 06/03/2024 23:07:45 -72.66, 4.80 129.70 06/03/2024 23:08:00 -72.69, 4.83 129.68 3.15 15
22 06/03/2024 23:58:31 72.67, 172.10 50.30 06/03/2024 23:58:40 72.68, 172.13 50.31 1.39 9
23 06/04/2024 00:49:15 -72.68, -20.60 129.70 06/04/2024 00:49:22 -72.67, -20.55 129.71 1.62 7
24 06/04/2024 01:40:00 72.63, 146.80 50.26 06/04/2024 01:40:02 72.66, 146.75 50.28 3.24 2
25 06/04/2024 02:30:44 -72.64, -45.89 129.75 06/04/2024 02:30:44 -72.65, -45.93 129.73 1.92 0
26 06/04/2024 03:21:30 72.65, 121.40 50.26 06/04/2024 03:21:24 72.64, 121.37 50.26 1.40 6



Historial Predications of SNOs between NOAA-21 and METOP-C
